Temperature
17 18 19 19 19 19 18 17 17 18 18 19 19 19 20 20 20 19 19 19 19 19 19 18 18 18 18 17 17 17 17 16 16 16 16 16 16 16 16 16 16 15 15 15
17 18 18 18 19 19 19 19 18 19 19 19 20 20 20 20 19 19 19 19 19 19 19 19 18 18 18 18 17 17 17 17 16 16 16 16 16 16 16 16 16 15 15 15
15 17 17 17 18 19 19 19 19 18 18 18 18 18 19 19 19 19 19 19 19 19 19 19 19 18 18 18 17 17 17 17 16 16 16 16 16 16 16 16 16 15 15 15
14 16 16 17 18 19 19 19 19 19 18 19 19 19 20 20 19 19 19 19 19 19 19 19 19 18 18 18 18 17 17 17 16 16 16 16 16 16 15 15 15 15 15 15
13 14 16 17 18 19 18 18 18 18 18 19 20 19 19 19 20 20 20 20 19 19 19 19 19 18 18 18 17 17 17 17 16 16 16 16 16 16 16 15 15 15 15 15
13 14 15 17 18 20 18 17 18 18 18 18 18 16 17 19 19 20 20 19 19 19 19 19 19 18 18 18 17 17 17 17 17 16 16 16 16 16 16 16 15 15 15 15
13 13 14 16 18 19 17 17 18 18 18 18 17 18 19 19 19 19 19 19 19 19 18 19 18 18 18 18 18 17 17 17 17 17 16 16 16 16 16 16 15 15 15 15
12 13 14 17 17 17 17 18 19 19 19 19 19 19 19 19 19 19 19 19 19 18 18 18 18 18 18 18 18 18 17 17 17 17 16 16 16 16 16 15 15 15 15 15
13 14 16 17 17 18 19 18 19 19 19 19 19 19 19 19 19 19 18 18 18 18 18 18 18 18 18 18 17 17 17 17 17 17 16 16 16 16 15 15 15 15 15 15
13 14 15 17 17 17 18 18 19 19 19 19 19 18 18 18 18 18 18 18 18 18 17 17 17 17 17 17 17 17 17 17 17 16 16 16 16 16 15 15 15 15 15 15
12 13 15 16 17 17 17 18 18 18 18 18 18 18 18 18 18 18 17 17 17 17 17 17 17 17 17 17 17 17 17 16 16 16 16 15 15 15 15 15 15 15 15 15
12 13 13 14 16 16 17 17 17 18 17 18 18 17 17 17 17 17 17 17 17 17 17 17 17 17 16 16 16 16 16 16 16 15 15 15 15 15 15 15 15 14 14 14
14 14 14 15 15 16 16 17 17 17 17 17 17 17 17 17 17 17 17 17 16 16 16 16 16 16 16 16 16 16 16 16 15 15 15 15 15 15 15 14 14 14 14 13
14 14 13 14 14 15 16 16 16 16 16 16 16 16 16 16 16 16 16 16 16 16 16 16 16 16 16 16 15 15 15 15 15 15 15 15 15 14 14 14 14 14 13 13
13 13 13 14 14 15 15 15 16 16 16 16 16 16 16 16 16 16 16 16 15 15 15 15 15 15 15 15 15 15 15 15 15 14 14 14 14 14 14 14 14 13 13 13
13 13 13 13 14 14 15 15 15 15 15 15 15 15 15 16 15 15 15 15 15 15 15 15 15 15 15 15 15 14 14 14 14 14 14 14 14 13 13 13 13 13 13 12
12 12 12 13 13 14 14 14 14 14 15 15 15 15 15 15 15 15 15 15 15 15 15 15 15 14 14 14 14 14 14 14 14 13 13 13 13 13 13 13 12 12 12 12
12 12 13 13 13 13 14 14 14 14 14 14 14 14 14 14 14 14 14 14 14 14 14 14 14 14 14 14 14 14 13 13 13 13 13 13 13 12 12 12 12 12 12 11
12 12 12 13 13 13 13 13 14 14 14 14 14 14 14 14 14 14 14 14 14 14 14 13 13 13 13 13 13 13 13 13 13 13 13 12 12 12 12 12 12 11 11 11
12 12 12 13 13 13 13 13 13 13 13 13 13 13 13 13 13 13 13 13 13 13 13 13 13 13 13 13 13 13 13 13 12 12 12 12 12 11 11 11 11 11 11 10
11 12 12 12 12 13 13 13 13 13 13 13 13 13 13 13 13 13 13 13 13 13 13 12 12 12 12 12 12 12 12 12 12 12 12 11 11 11 11 11 11 10 10 10
11 11 11 12 12 12 12 12 12 12 12 12 12 12 12 12 12 12 12 12 12 12 12 12 12 12 12 12 12 12 12 12 11 11 11 11 11 11 11 10 10 10 10 10
11 11 11 11 11 11 12 12 12 12 12 12 12 12 12 12 12 12 11 12 12 12 12 12 11 11 11 11 11 11 11 11 11 11 11 11 10 10 10 10 10 10 9 9
10 10 11 11 11 11 11 11 11 11 11 11 11 11 11 11 11 11 11 11 11 11 11 11 11 11 11 11 11 11 11 10 10 10 10 10 10 10 10 9 9 9 9 9
10 10 10 10 10 10 10 10 11 10 11 11 11 11 11 11 11 10 10 10 10 10 10 10 10 10 10 10 10 10 10 10 10 9 9 9 9 9 9 9 9 8 8 8
9 9 9 10 10 10 10 10 10 10 10 10 10 10 10 10 10 10 10 10 10 10 10 9 9 10 10 9 9 9 9 9 9 9 9 9 9 9 8 8 8 8 8 8
8 9 9 9 9 9 9 9 9 9 9 9 9 9 9 9 9 9 9 9 9 9 9 9 9 9 9 9 9 9 9 9 9 8 8 8 8 8 8 8 8 7 7 7
Wind_Speed
6 7 5 6 7 7 7 8 8 8 8 9 8 7 7 6 6 7 7 8 9 9 9 9 9 9 9 8 8 7 7 7 7 6 6 5 5 4 4 4 5 5 5 4
4 5 5 7 9 9 8 7 7 6 8 7 6 4 4 5 7 7 8 8 9 9 9 10 10 10 9 8 8 8 8 8 7 6 6 6 5 5 4 4 4 5 5 5
5 5 4 8 9 8 6 5 7 8 8 4 4 6 7 8 8 7 7 8 9 10 10 10 10 10 11 9 8 8 8 8 7 7 7 6 6 5 5 5 5 5 5 5
2 1 7 8 6 6 6 6 6 5 5 6 7 8 7 6 8 7 6 7 8 9 9 9 8 8 8 8 8 9 8 8 7 7 7 7 6 6 6 5 5 5 5 5
3 4 7 7 4 5 6 5 4 3 3 4 4 3 1 3 6 8 7 6 7 8 8 8 8 8 8 8 8 8 8 8 8 8 8 7 8 7 6 5 5 5 5 5
3 4 7 7 6 4 4 5 4 4 4 3 4 4 5 5 5 5 4 4 5 5 5 7 7 7 8 8 9 10 10 9 9 8 9 9 9 7 5 5 6 6 5 5
6 5 7 8 6 1 4 7 4 4 5 5 5 6 6 5 4 5 4 4 4 5 6 6 7 8 9 9 10 10 9 8 8 9 10 9 8 6 5 6 6 5 5 4
6 5 8 5 1 3 6 4 3 4 4 4 4 3 3 5 5 4 3 3 4 5 5 4 6 8 8 9 9 7 7 7 8 8 8 8 7 6 6 7 6 5 4 3
7 7 5 2 3 4 3 3 3 3 3 4 3 2 3 4 5 5 4 4 5 5 4 4 5 7 8 7 6 7 8 7 6 6 6 7 8 8 6 6 6 5 4 4
4 6 5 4 2 2 2 3 3 3 3 4 3 3 3 4 4 4 4 4 4 5 5 4 5 6 7 6 6 8 8 8 7 6 5 4 5 6 6 6 6 6 5 5
5 5 4 4 3 3 3 2 1 2 3 4 4 3 3 4 5 4 3 3 4 5 6 6 5 5 5 5 7 8 8 7 7 6 7 5 4 4 6 6 7 8 6 6
6 6 4 6 6 4 2 2 2 2 1 2 4 4 3 4 4 4 4 3 3 4 4 5 5 5 5 6 8 9 8 7 6 6 6 6 5 3 2 3 5 7 7 7
7 6 5 6 6 5 4 3 2 2 3 3 3 3 3 3 3 3 3 3 4 4 4 5 5 5 5 6 7 8 8 8 6 6 6 6 6 6 4 2 3 4 5 7
5 3 4 6 6 5 3 2 1 1 2 3 3 3 3 2 3 4 4 4 4 4 4 4 5 4 4 5 7 7 8 8 7 6 6 6 6 5 5 5 4 1 1 5
7 6 6 7 7 5 2 1 1 1 1 1 2 3 4 4 4 4 3 3 3 3 3 4 4 4 3 5 7 7 6 6 6 5 6 5 5 4 4 5 5 3 2 2
7 5 5 5 5 3 2 2 2 2 3 3 3 4 4 4 3 3 3 4 5 4 4 5 5 4 4 6 6 6 5 8 7 6 5 5 5 5 4 5 5 4 4 3
6 6 4 4 5 4 4 4 4 4 4 4 4 3 2 2 2 2 3 3 4 5 5 5 5 4 5 6 7 6 5 6 8 6 5 5 5 5 5 5 5 4 3 4
10 10 8 7 7 6 5 5 4 3 4 4 3 2 3 4 5 4 3 2 2 2 3 4 5 5 5 6 6 6 5 5 5 5 5 5 5 4 4 5 5 5 3 4
9 8 7 6 6 5 5 5 4 3 3 3 3 3 4 4 4 4 3 4 4 4 3 3 6 5 5 5 6 5 6 6 5 5 5 6 5 4 4 5 5 4 4 4
6 5 4 3 4 4 4 4 3 2 2 3 3 2 2 2 3 4 4 4 4 3 3 4 5 5 5 6 6 5 6 6 6 5 5 5 5 5 4 4 5 4 4 4
3 3 3 3 3 2 3 4 4 2 2 3 4 3 3 2 3 4 4 2 1 2 4 5 4 4 4 5 7 5 5 5 6 6 6 5 5 5 4 4 4 4 4 4
2 3 3 3 3 1 1 2 3 3 2 2 2 3 3 2 2 2 2 2 3 4 4 3 3 5 6 7 5 5 5 5 5 5 5 5 5 5 4 4 4 4 4 4
2 2 2 3 3 1 0 1 2 3 3 3 3 4 4 3 3 4 2 1 3 5 4 3 5 8 8 6 5 5 5 5 5 5 5 5 5 5 4 4 4 4 4 4
3 2 2 3 3 3 2 0 0 1 2 2 3 4 4 3 1 1 2 4 5 5 4 6 9 9 8 5 5 5 5 5 5 5 5 5 4 4 4 4 4 4 4 4
3 3 3 3 3 3 2 2 2 2 3 2 2 2 2 3 3 2 3 5 6 6 5 7 9 9 6 5 6 6 5 5 5 5 5 4 4 4 4 4 4 4 3 3
2 2 2 3 3 3 3 2 2 2 3 3 3 3 3 3 4 4 4 5 6 7 5 5 5 6 5 6 6 6 5 6 6 5 5 4 5 5 4 4 5 4 3 3
2 2 1 1 1 2 2 3 3 3 4 4 4 3 3 4 4 4 5 5 5 5 5 5 5 5 5 6 6 6 6 5 5 5 5 5 5 5 5 5 5 4 4 4
Wind_Direction
234 245 239 250 253 236 222 206 204 228 225 236 224 205 195 183 173 167 172 172 176 180 182 182 183 187 187 186 183 175 172 177 185 183 174 174 175 172 161 158 160 153 145 144
274 269 259 266 257 245 237 228 217 224 244 246 219 180 173 173 168 172 183 186 185 185 184 186 188 189 188 188 185 174 176 186 188 176 171 174 176 167 159 158 151 143 148 151
258 277 295 260 239 221 224 226 203 220 234 227 175 174 182 182 175 179 187 187 186 191 191 192 192 188 188 189 181 178 183 187 184 179 178 180 174 162 165 168 158 152 157 153
227 219 231 242 238 210 215 239 225 216 214 194 187 190 181 169 170 176 187 195 193 192 195 195 190 187 184 177 173 180 184 186 185 182 182 178 170 173 176 165 162 162 165 162
184 219 259 279 264 215 200 249 250 209 196 192 185 141 222 208 185 188 192 197 198 192 191 189 186 182 174 175 177 181 187 191 189 185 183 179 178 182 178 165 166 168 164 165
184 205 232 245 260 238 163 240 252 179 170 160 129 151 235 237 207 200 194 189 189 186 175 178 184 173 171 180 183 192 196 195 190 187 186 189 191 185 174 165 172 168 164 171
202 222 256 258 271 96 183 231 240 182 168 157 174 203 212 204 201 199 190 178 166 164 174 184 179 170 179 184 195 200 195 189 186 189 191 189 186 178 165 164 162 166 169 177
185 205 243 271 342 185 222 230 206 183 181 179 199 210 193 181 182 178 175 165 166 169 183 185 172 170 178 195 201 187 177 182 187 190 190 183 174 174 167 164 164 172 172 179
198 218 240 246 224 253 241 227 223 194 195 179 180 197 189 176 175 177 177 182 183 179 183 190 180 173 183 203 188 172 168 177 181 178 181 176 175 174 166 168 173 180 178 187
230 253 254 262 254 302 270 237 229 191 173 162 175 183 181 177 176 180 185 190 184 175 179 195 192 187 193 192 176 171 174 177 170 162 160 160 169 173 173 179 180 181 183 192
243 256 289 289 282 293 291 266 193 176 177 168 151 170 180 179 181 183 192 191 182 183 190 198 193 190 188 174 166 169 172 170 165 160 157 155 156 174 181 190 185 182 189 186
230 229 218 258 275 290 271 245 202 165 174 186 168 173 182 179 184 175 175 182 183 191 194 196 187 182 179 170 166 166 167 166 164 159 155 153 146 123 113 153 159 170 174 173
234 251 248 261 269 275 263 242 217 177 176 194 189 175 174 183 179 170 172 173 183 192 197 193 186 179 175 170 166 166 166 164 160 159 158 159 159 159 152 100 98 145 167 172
239 242 271 279 274 270 247 238 225 182 189 184 182 180 174 177 170 175 193 196 184 179 182 180 178 182 176 163 160 160 157 159 159 162 164 167 170 170 168 162 155 140 147 164
250 235 244 267 270 264 230 167 125 181 225 210 183 180 181 177 188 202 197 179 160 161 175 168 166 178 166 153 152 153 151 155 159 158 159 162 162 159 158 162 160 154 134 129
237 238 242 255 246 233 182 174 180 210 207 201 203 208 199 187 192 188 179 170 165 178 184 175 175 176 163 153 147 147 153 154 150 151 151 150 155 159 162 165 167 168 176 184
225 234 240 250 233 215 206 209 206 212 205 197 209 216 193 161 161 183 194 188 184 188 183 176 174 164 157 155 154 154 151 156 148 145 151 155 158 165 168 167 170 173 182 169
221 220 219 215 214 210 215 219 211 206 207 209 201 184 182 182 193 203 205 181 157 158 173 168 157 151 152 154 155 152 152 154 157 157 156 155 155 159 161 165 170 168 158 145
222 223 225 221 206 198 204 208 206 206 210 195 187 195 205 205 201 190 172 162 164 175 195 168 144 142 152 160 148 146 148 148 147 149 148 151 150 152 157 161 159 157 150 144
220 216 212 205 192 191 197 197 183 197 204 183 175 176 199 214 186 173 170 180 190 188 174 153 148 153 154 152 138 143 148 151 153 153 150 154 158 160 159 158 158 157 153 153
188 180 174 172 171 187 197 185 171 187 198 173 172 185 205 206 175 161 158 168 196 142 146 147 152 153 148 144 140 144 149 153 155 157 157 158 157 157 156 157 158 155 154 154
142 145 154 157 156 197 229 172 161 166 173 174 174 174 164 159 152 141 155 167 167 143 138 145 147 144 143 133 134 137 141 145 148 149 151 153 154 154 156 158 159 154 153 153
129 142 139 148 156 175 184 147 160 173 184 186 175 172 171 168 167 159 165 166 152 137 130 136 135 133 131 124 126 126 125 126 134 140 143 144 147 149 151 153 154 151 150 150
135 137 136 134 121 117 120 121 134 162 164 163 166 165 153 138 122 139 141 142 136 127 124 129 125 122 119 115 116 117 117 118 118 120 121 123 128 131 134 137 138 137 138 141
131 136 139 133 135 153 162 143 101 97 108 110 112 119 123 133 141 133 127 133 129 118 115 123 122 119 117 116 117 117 116 117 118 117 117 121 124 126 126 126 130 132 134 137
136 151 159 163 167 164 160 140 134 142 128 114 95 86 88 92 102 108 112 115 117 111 106 109 116 114 112 114 115 115 116 118 115 114 118 121 120 120 118 115 113 117 123 124
106 108 107 99 107 137 141 140 147 153 146 139 127 109 106 106 107 106 106 110 111 106 104 105 108 111 112 112 112 109 107 107 108 109 112 115 117 117 119 118 119 120 120 119
Height
1516 1512 1511 1511 1510 1509 1514 1517 1523 1518 1514 1507 1503 1502 1502 1503 1504 1506 1507 1509 1511 1513 1515 1518 1520 1523 1525 1528 1530 1532 1534 1535 1537 1539 1540 1542 1543 1544 1545 1546 1547 1549 1550 1550
1515 1510 1509 1509 1506 1505 1505 1507 1509 1508 1507 1499 1498 1500 1502 1503 1503 1505 1506 1507 1509 1511 1513 1515 1518 1520 1523 1525 1527 1530 1531 1533 1535 1537 1538 1540 1541 1543 1544 1545 1546 1547 1548 1549
1522 1513 1511 1513 1502 1501 1502 1499 1502 1506 1502 1497 1498 1499 1499 1500 1501 1502 1504 1505 1507 1509 1511 1513 1515 1517 1520 1522 1525 1527 1529 1531 1533 1535 1536 1538 1539 1541 1542 1543 1544 1545 1547 1548
1522 1518 1524 1505 1492 1492 1495 1494 1494 1494 1494 1494 1494 1495 1496 1497 1499 1500 1501 1503 1504 1506 1508 1510 1513 1515 1517 1520 1522 1524 1526 1528 1530 1532 1534 1535 1537 1538 1540 1541 1542 1544 1545 1546
1523 1522 1512 1499 1491 1490 1493 1495 1491 1491 1491 1491 1491 1493 1495 1496 1497 1498 1499 1500 1501 1503 1506 1508 1510 1512 1514 1517 1519 1521 1523 1525 1527 1529 1531 1532 1534 1535 1537 1539 1540 1542 1543 1545
1520 1520 1516 1499 1486 1484 1489 1496 1488 1487 1488 1489 1490 1497 1496 1494 1495 1496 1497 1498 1499 1501 1503 1505 1507 1509 1512 1514 1516 1517 1519 1521 1524 1526 1528 1530 1531 1533 1535 1536 1538 1540 1541 1543
1516 1515 1505 1489 1484 1484 1498 1495 1485 1484 1485 1487 1488 1490 1490 1491 1493 1494 1495 1496 1497 1499 1501 1502 1504 1506 1508 1510 1512 1514 1516 1518 1521 1523 1525 1527 1529 1531 1532 1534 1536 1537 1539 1540
1510 1512 1505 1484 1484 1487 1487 1483 1482 1482 1483 1484 1485 1486 1487 1488 1489 1491 1492 1494 1495 1497 1498 1500 1502 1503 1505 1506 1508 1511 1513 1515 1517 1519 1522 1524 1526 1528 1530 1531 1533 1534 1536 1537
1497 1495 1485 1482 1483 1482 1482 1482 1480 1480 1481 1482 1483 1483 1484 1485 1486 1488 1490 1492 1493 1494 1496 1497 1499 1500 1501 1503 1506 1508 1510 1511 1513 1516 1518 1520 1522 1525 1526 1528 1529 1531 1532 1533
1490 1485 1482 1481 1481 1481 1481 1480 1479 1478 1479 1480 1480 1481 1482 1483 1484 1485 1487 1489 1490 1491 1493 1494 1496 1497 1499 1500 1502 1504 1506 1508 1510 1512 1515 1517 1519 1521 1523 1525 1526 1527 1529 1530
1486 1482 1480 1479 1479 1479 1478 1478 1477 1477 1477 1478 1478 1479 1480 1480 1481 1483 1484 1486 1487 1488 1489 1491 1492 1494 1496 1497 1499 1501 1503 1505 1507 1509 1512 1514 1516 1518 1520 1522 1523 1525 1526 1527
1482 1479 1479 1478 1477 1477 1476 1475 1475 1474 1475 1475 1476 1476 1477 1478 1479 1480 1481 1483 1484 1486 1487 1488 1489 1491 1493 1494 1496 1498 1500 1502 1504 1506 1509 1511 1513 1515 1517 1519 1520 1522 1523 1525
1475 1475 1476 1474 1474 1474 1473 1473 1472 1472 1472 1473 1474 1474 1475 1476 1476 1477 1479 1480 1481 1483 1484 1485 1487 1488 1490 1491 1493 1495 1497 1499 1501 1503 1505 1508 1510 1511 1513 1515 1517 1519 1520 1522
1472 1473 1472 1470 1470 1470 1470 1470 1470 1470 1471 1471 1472 1473 1474 1474 1475 1475 1476 1478 1479 1480 1482 1483 1484 1486 1487 1489 1490 1492 1494 1496 1498 1500 1503 1505 1507 1509 1510 1512 1513 1515 1517 1518
1468 1468 1468 1468 1468 1468 1467 1467 1467 1468 1468 1469 1470 1471 1472 1472 1472 1473 1474 1475 1477 1478 1479 1480 1481 1483 1485 1486 1488 1490 1492 1494 1496 1498 1500 1502 1504 1506 1507 1509 1510 1512 1514 1515
1463 1464 1464 1464 1464 1464 1464 1465 1465 1465 1466 1466 1467 1468 1469 1470 1470 1471 1472 1473 1474 1475 1476 1477 1478 1480 1482 1484 1485 1487 1489 1491 1493 1495 1497 1499 1501 1503 1504 1506 1507 1509 1511 1512
1458 1458 1459 1460 1460 1460 1461 1462 1462 1462 1463 1464 1465 1466 1467 1467 1468 1468 1469 1470 1472 1473 1474 1475 1476 1478 1479 1481 1483 1485 1487 1489 1491 1493 1494 1496 1498 1500 1501 1503 1504 1506 1508 1510
1452 1452 1454 1455 1456 1457 1458 1459 1460 1459 1460 1461 1462 1463 1464 1464 1465 1466 1467 1468 1469 1470 1472 1473 1474 1475 1477 1479 1480 1482 1484 1486 1488 1490 1491 1493 1495 1497 1499 1500 1502 1503 1505 1506
1446 1447 1449 1450 1451 1453 1454 1456 1456 1456 1457 1458 1459 1460 1461 1461 1462 1463 1464 1465 1466 1467 1469 1470 1472 1473 1475 1476 1478 1480 1481 1483 1485 1487 1489 1491 1493 1494 1496 1497 1499 1500 1502 1503
1441 1443 1444 1446 1448 1449 1451 1452 1453 1454 1455 1456 1457 1457 1458 1459 1460 1460 1462 1462 1464 1465 1466 1468 1470 1471 1472 1474 1476 1477 1478 1480 1482 1484 1486 1488 1490 1491 1493 1494 1496 1497 1499 1500
1438 1440 1441 1443 1445 1446 1448 1449 1450 1451 1452 1453 1454 1455 1455 1456 1457 1458 1458 1460 1461 1463 1465 1466 1468 1469 1470 1472 1473 1475 1476 1477 1479 1481 1483 1485 1487 1488 1490 1492 1493 1495 1496 1497
1435 1437 1439 1440 1442 1444 1445 1446 1447 1448 1449 1450 1451 1452 1453 1453 1454 1456 1457 1458 1459 1461 1463 1464 1466 1467 1469 1470 1471 1472 1474 1475 1477 1479 1480 1482 1484 1485 1487 1489 1490 1492 1493 1494
1434 1435 1437 1438 1440 1441 1442 1444 1445 1446 1446 1447 1448 1449 1450 1451 1452 1453 1454 1456 1458 1459 1461 1462 1464 1465 1467 1468 1469 1470 1472 1474 1475 1477 1479 1480 1482 1483 1485 1487 1488 1489 1491 1492
1432 1433 1435 1436 1438 1439 1440 1441 1442 1443 1444 1445 1446 1447 1448 1449 1451 1452 1453 1454 1456 1457 1459 1460 1462 1463 1465 1466 1468 1469 1471 1473 1474 1476 1477 1479 1480 1482 1483 1484 1486 1487 1488 1489
1430 1432 1433 1434 1436 1437 1438 1439 1440 1441 1443 1444 1445 1446 1447 1448 1449 1450 1451 1452 1454 1456 1457 1459 1461 1462 1464 1465 1467 1469 1470 1472 1473 1475 1476 1477 1479 1480 1481 1483 1484 1485 1486 1487
1428 1429 1431 1432 1434 1435 1436 1437 1438 1439 1440 1441 1443 1444 1445 1446 1447 1449 1450 1451 1453 1454 1456 1458 1459 1461 1463 1464 1466 1468 1470 1471 1473 1474 1475 1477 1478 1479 1480 1481 1482 1483 1484 1485
1426 1428 1429 1430 1432 1433 1434 1435 1436 1437 1439 1440 1441 1442 1443 1445 1446 1447 1448 1450 1451 1453 1455 1456 1458 1460 1462 1464 1466 1468 1469 1471 1472 1473 1474 1475 1477 1478 1478 1479 1480 1481 1482 1482